Regional Weather Roundup
Issued by NWS Green Bay, WI

Home | Current Version | Previous Version | Text Only | Print | Product List | Glossary On
Versions: 1 2 3 4 5 6 7 8 9 10 11 12 13 14 15 16 17 18 19 20 21 22 23 24 25 26 27 28 29 30 31 32 33 34 35 36 37 38 39 40 41 42 43 44 45 46 47 48 49 50
000
ASUS43 KGRB 191010
RWRGRB

NORTH-CENTRAL AND NORTHEAST WISCONSIN REGIONAL WEATHER ROUNDUP
NATIONAL WEATHER SERVICE GREEN BAY WI
500 AM CDT SUN APR 19 2015

WIZ005-009-010>012-018-019-191100-
NORTH CENTRAL WISCONSIN

CITY           SKY/WX    TMP DP  RH WIND       PRES   REMARKS
IRONWOOD       CLOUDY    45  37  76 E6        29.90F
MANITOWISH WTR LGT RAIN  43  29  57 SE3       29.93F
ARBOR VITAE    LGT RAIN  44  27  50 SE9       29.93F
EAGLE RIVER    CLOUDY    42  21  44 S6        29.95S
LAND O LAKES   CLOUDY    42  23  47 SE8       29.94F
RHINELANDER    CLOUDY    44  23  43 SE8       29.95S
PHILLIPS       LGT RAIN  41  35  79 E8        29.89F
ANTIGO         CLOUDY    41  25  51 SE17G26   29.94F
TOMAHAWK       CLOUDY    46  23  40 CALM      29.93F
MERRILL        CLOUDY    47  22  38 SE7       29.92F
$$

WIZ013-073-191100-
NORTHEAST WISCONSIN

CITY           SKY/WX    TMP DP  RH WIND       PRES   REMARKS
IRON MOUNTAIN  MOCLDY    39  27  62 SE6       30.00F
MARINETTE      CLEAR     39  27  60 E7        30.00F
OCONTO         PTCLDY    42  28  58 E5        29.99F
$$

WIZ017-030-035>037-045-191100-
CENTRAL WISCONSIN

CITY           SKY/WX    TMP DP  RH WIND       PRES   REMARKS
MEDFORD        CLOUDY    42  31  65 E9G16     29.86F
WAUSAU         CLOUDY    46  23  40 E10       29.90F
MOSINEE        CLOUDY    45  23  42 E9        29.92F
MARSHFIELD     CLOUDY    47  29  49 E13       29.87F
WISC RAPIDS    CLOUDY    47  24  40 E8        29.90F
STEVENS POINT  CLOUDY    44  24  46 E10       29.91F
WAUPACA        CLOUDY    47  26  43 NE6       29.94F
SHAWANO        CLOUDY    45  31  59 E8        29.97F
CLINTONVILLE   CLOUDY    43  27  52 E5        29.95F
$$

WIZ038-039-048-051-191100-
FOX VALLEY

CITY           SKY/WX    TMP DP  RH WIND       PRES   REMARKS
NWS GREEN BAY  MOCLDY    46  26  45 SE10      29.97F
APPLETON       CLOUDY    46  27  46 SE13G18   29.94F
OSHKOSH        MOCLDY    49  28  44 SE14      29.92F
FOND DU LAC    MOCLDY    48  27  44 SE17      29.92F
$$

WIZ022-050-052-191100-
EAST CENTRAL WISCONSIN

CITY           SKY/WX    TMP DP  RH WIND       PRES   REMARKS
STURGEON BAY   CLEAR     41  27  56 SE9       30.01F
MANITOWOC      PTCLDY    40  31  70 E5        29.99F
SHEBOYGAN      PTCLDY    43  29  57 SE6       29.98F
$$

LMZ563-521-522-541>543-191100-
LAKESHORE

STATION/POSITION TIME  TEMP    WIND        PRES    VSBY  WAVE
                       AIR SEA DIR/SP/G                  HT/PER
                 (UTC) (F)     (DEG/KT/KT) (MB)    (MI)  (FT/S)
SHEBOYGAN LKSHOR 1000   44     130/  5/  6 1015.9F
KEWAUNEE LKSHORE 1000   41      70/  2/  4 1015.1F
NORTHPORT PIER   1000   40     100/  9/ 11 1017.3S
CHAMBERS ISLAND  1000   43      80/  5/  8 1016.6F
MENOMINEE LKSHOR 1000   42      40/  7/  9 1016.8F
$$


USA.gov is the U.S. government's official web portal to all federal, state and local government web resources and services.